[[[{"header":{"parameterUnit":"kt","parameterCategory":2,"dx":1,"dy":1,"la1":30.253999710083008,"la2":30.299108505249023,"lo1":-89.0895004272461,"lo2":-89.04439544677734,"nx":28,"ny":28,"refTime":"2022-09-21T21:00:00:Z","depth":0,"parameterNumber":1,"parameterNumberName":"U-component_of_WINDS"},"data":[2.706,2.7137,2.7131,2.7216,2.7224,2.728,2.7298,2.732,2.7336,2.7401,2.7437,2.7438,2.7449,2.749,2.7527,2.7526,2.7542,2.7574,2.7567,2.7431,2.7412,2.7393,2.7375,2.7578,2.7579,2.7709,2.771,2.7711,2.6962,2.6972,2.7015,2.7052,2.7089,2.7054,2.708,2.7113,2.7163,2.7183,2.7218,2.7274,2.7317,2.7318,2.7357,2.7392,2.7377,2.7403,2.7399,2.7402,2.7256,2.7237,2.7414,2.7414,2.7414,2.7414,2.7414,2.7414,2.6781,2.6827,2.6846,2.6892,2.6909,2.6934,2.6976,2.6976,2.7017,2.7058,2.7042,2.7098,2.7115,2.7159,2.7171,2.7214,2.7184,2.7209,2.7216,2.7222,2.7231,2.7043,2.7221,2.722,2.722,2.7219,2.7219,0,2.6646,2.6638,2.6678,2.6717,2.675,2.6779,2.6804,2.683,2.6808,2.6842,2.6891,2.6918,2.6971,2.7015,2.705,2.7057,2.7023,2.7019,2.7036,2.7045,2.7048,2.7046,2.6809,2.7013,2.7011,2.701,2.7009,2.7008,2.6462,2.6517,2.6533,2.6562,2.6574,2.6621,2.6647,2.6624,2.6653,2.6679,2.672,2.6765,2.6799,2.6877,2.6874,2.6913,2.6896,2.6975,2.6901,2.6908,2.6896,2.6893,2.6898,2.6989,2.6992,2.6994,2.6995,0,2.6359,2.6347,2.643,2.6439,2.6443,2.6501,2.6509,2.6553,2.6547,2.6607,2.6619,2.661,2.6657,2.6641,2.6692,2.6682,2.6776,2.6759,2.677,2.6765,2.6834,2.6827,2.7059,2.7088,2.6878,2.688,2.6882,0,2.6197,2.6269,2.6247,2.6296,2.6375,2.6349,2.6428,2.643,2.6444,2.6491,2.645,2.6495,2.6467,2.6509,2.6494,2.6568,2.6578,2.6574,2.6569,2.6577,2.6578,2.6591,2.658,2.6556,2.6555,2.6554,2.6553,0,2.6036,2.6109,2.6187,2.6201,2.6218,2.6255,2.6264,2.6279,2.6305,2.6335,2.6351,2.6389,2.6409,2.6438,2.6419,2.637,2.6509,2.6437,2.6505,2.6505,2.6535,2.6534,2.6745,2.6552,2.6552,2.6551,2.6551,0,2.5902,2.5935,2.605,2.6063,2.6083,2.6134,2.6169,2.6209,2.6228,2.6222,2.6246,2.6216,2.6279,2.6209,2.6296,2.6237,2.6259,2.6262,2.6266,2.627,2.6191,2.6312,2.6515,2.6535,2.6275,2.6272,2.627,0,2.5721,2.5834,2.5812,2.5922,2.5972,2.5922,2.5978,2.5996,2.5992,2.6033,2.6029,2.6075,2.6019,2.6031,2.6077,2.6073,2.615,2.6063,2.612,2.6123,2.6116,2.6304,2.6338,2.6473,2.6241,2.6244,2.6246,0,2.5579,2.5598,2.562,2.5634,2.5654,2.5695,2.576,2.58,2.5829,2.5853,2.5906,2.5971,2.5932,2.5952,2.5931,2.5979,2.6097,2.5929,2.5929,2.596,2.6224,2.6256,2.6279,2.6072,2.6076,2.6079,2.6223,0,2.5379,2.5434,2.549,2.5525,2.5554,2.5621,2.5603,2.5636,2.5613,2.5607,2.5685,2.5694,2.5734,2.5756,2.5733,2.5849,2.5826,2.5783,2.5713,2.5836,2.5883,2.5902,2.5644,2.5642,2.564,2.5639,0,0,2.5209,2.5286,2.5259,2.532,2.5343,2.5289,2.5363,2.5378,2.5411,2.5428,2.5388,2.5481,2.549,2.5586,2.5623,2.564,2.5658,2.5616,2.5778,2.5793,2.5807,2.5858,2.5878,2.5636,2.5635,2.5634,2.5634,0,2.5132,2.5144,2.5217,2.5232,2.5253,2.5243,2.5261,2.5272,2.5271,2.5347,2.5301,2.5345,2.542,2.5435,2.5453,2.5604,2.5566,2.5618,2.5705,2.576,2.5778,2.5794,2.5847,2.5866,2.5629,2.563,2.563,0,2.4988,2.4996,2.503,2.5079,2.5092,2.5144,2.5066,2.5124,2.5161,2.5098,2.5174,2.5176,2.5196,2.5289,2.533,2.5295,2.5483,2.542,2.5431,2.5435,2.5486,2.5508,2.5528,2.5273,2.5272,2.5271,0,0,2.4923,2.4974,2.4974,2.5061,2.5072,2.5058,2.5084,2.5063,2.5082,2.5089,2.5092,2.5111,2.5154,2.5183,2.5222,2.5327,2.5328,2.5377,2.5394,2.5407,2.5419,2.5474,2.5496,2.5266,2.5266,2.5266,0,0,2.4892,2.4896,2.487,2.4968,2.4988,2.4993,2.5047,2.5014,2.5047,2.5037,2.5003,2.5007,2.5094,2.5098,2.5041,2.5196,2.5127,2.514,2.519,2.5211,2.5228,2.5224,2.4962,0,0,0,0,0,2.4804,2.4896,2.4872,2.4885,2.4946,2.5007,2.5015,2.4989,2.4941,2.4984,2.498,2.4937,2.506,2.501,2.5023,2.5086,2.521,2.522,2.5229,2.5319,2.5341,2.536,0,0,0,0,0,0,2.4809,2.4826,2.4869,2.4879,2.4892,2.5003,2.4916,2.4911,2.4936,2.4926,2.494,2.4938,2.4917,2.5001,2.5014,2.5074,2.4957,2.5214,2.5222,2.523,2.5326,2.5344,2.536,0,0,0,0,0,2.4813,2.4826,2.4931,2.4877,2.4889,2.4878,2.4912,2.4908,2.4926,2.492,2.4917,2.4905,2.4919,2.4928,2.5008,2.5069,2.4948,2.4953,2.5219,2.5226,2.5232,2.5335,0,0,0,0,0,0,2.4816,2.4823,2.4932,2.4935,2.484,2.4871,2.4875,2.4905,2.4918,2.4916,2.4883,2.4876,2.4922,2.4929,2.4936,2.5069,2.4941,2.4946,2.4949,2.5224,2.523,2.5234,0,0,0,0,0,0,2.4815,2.4825,2.4934,2.4888,2.4886,2.4865,2.4868,2.4932,2.4918,2.488,2.4874,2.488,2.4911,2.493,2.4935,2.5036,2.4935,2.494,2.4943,2.4945,2.5229,2.5233,0,0,0,0,0,0,2.4819,2.4827,2.4888,2.4886,2.4883,2.4909,2.492,2.4984,2.4881,2.488,2.4871,2.4866,2.4913,2.4918,2.4934,2.5033,2.5035,2.4935,2.4939,2.4941,2.4942,0,0,0,0,0,0,0,2.4822,2.477,2.4917,2.4883,2.488,2.4959,2.4959,2.496,2.488,2.4876,2.4872,2.4868,2.4908,2.4913,2.4919,2.5031,0,0,2.4935,2.4937,0,0,0,0,0,0,0,0,2.4766,2.4769,2.4917,2.4918,2.4918,2.4959,2.4959,2.496,2.4879,2.4876,2.4872,2.4869,2.491,2.4914,2.4918,0,0,0,0,0,0,0,0,0,0,0,0,0,0,0,2.4917,2.4918,0,2.4959,2.4959,2.496,2.4879,2.4876,2.4873,2.4871,2.4911,2.4914,2.4918,0,0,0,0,0,0,0,0,0,0,0,0,0,0,0,0,0,0,0,0,0,0,0,0,0,0,0,0,0,0,0,0,0,0,0,0,0,0,0,0,0,0,0,0,0,0,0,0,0,0,0,0,0,0,0,0,0,0,0,0,0,0,0,0,0,0,0,0,0]}],[{"header":{"parameterUnit":"kt","parameterCategory":2,"dx":1,"dy":1,"la1":30.253999710083008,"la2":30.299108505249023,"lo1":-89.0895004272461,"lo2":-89.04439544677734,"nx":28,"ny":28,"refTime":"2022-09-21T21:00:00:Z","depth":0,"parameterNumber":2,"parameterNumberName":"V-component_of_WINDS"},"data":[-2.5819,-2.5907,-2.5936,-2.605,-2.6096,-2.618,-2.6219,-2.6274,-2.6324,-2.6429,-2.6495,-2.6534,-2.6598,-2.6684,-2.6758,-2.6774,-2.6804,-2.6814,-2.6832,-2.6757,-2.6749,-2.6741,-2.6722,-2.682,-2.682,-2.6905,-2.6906,-2.6906,-2.5766,-2.5811,-2.5879,-2.5966,-2.6025,-2.6033,-2.6103,-2.6152,-2.6227,-2.629,-2.6356,-2.6451,-2.6529,-2.6591,-2.6672,-2.6716,-2.6725,-2.6736,-2.6734,-2.6744,-2.6666,-2.6645,-2.6728,-2.6728,-2.6728,-2.6728,-2.6728,-2.6728,-2.5676,-2.5726,-2.5795,-2.587,-2.5921,-2.5979,-2.6033,-2.6079,-2.6147,-2.6234,-2.6256,-2.6341,-2.6411,-2.6523,-2.6568,-2.6637,-2.663,-2.6652,-2.6658,-2.6663,-2.6665,-2.6541,-2.6652,-2.6652,-2.6652,-2.6652,-2.6652,0,-2.5619,-2.5639,-2.5706,-2.5782,-2.5838,-2.59,-2.5961,-2.5996,-2.605,-2.6104,-2.6185,-2.6237,-2.634,-2.642,-2.6503,-2.6545,-2.656,-2.6564,-2.658,-2.6571,-2.6553,-2.6565,-2.6437,-2.6561,-2.656,-2.656,-2.6559,-2.6559,-2.5531,-2.5586,-2.5671,-2.5715,-2.5755,-2.5824,-2.5871,-2.5915,-2.5963,-2.6046,-2.609,-2.617,-2.6237,-2.6363,-2.6417,-2.6494,-2.6502,-2.6547,-2.6514,-2.6504,-2.6505,-2.6502,-2.6509,-2.6552,-2.6553,-2.6554,-2.6554,0,-2.5479,-2.5525,-2.562,-2.5699,-2.572,-2.5777,-2.5845,-2.5898,-2.5936,-2.6015,-2.6036,-2.6098,-2.6177,-2.6224,-2.6324,-2.6346,-2.6444,-2.6449,-2.6421,-2.6425,-2.647,-2.6466,-2.6607,-2.6629,-2.6527,-2.6528,-2.6528,0,-2.5423,-2.5494,-2.5558,-2.5611,-2.5692,-2.5733,-2.5812,-2.5853,-2.5912,-2.5974,-2.5997,-2.6055,-2.6106,-2.6172,-2.6205,-2.6293,-2.6311,-2.6334,-2.6342,-2.6333,-2.633,-2.636,-2.6356,-2.6357,-2.6356,-2.6355,-2.6355,0,-2.5337,-2.5454,-2.554,-2.5574,-2.5664,-2.5704,-2.5744,-2.5809,-2.5855,-2.5922,-2.5953,-2.6029,-2.607,-2.6129,-2.6171,-2.6147,-2.6279,-2.6255,-2.6302,-2.6302,-2.6329,-2.6327,-2.644,-2.6354,-2.6353,-2.6353,-2.6353,0,-2.5299,-2.5364,-2.548,-2.5556,-2.5585,-2.5642,-2.5718,-2.5777,-2.5845,-2.5869,-2.5922,-2.5943,-2.6021,-2.5995,-2.6105,-2.6062,-2.6103,-2.6132,-2.6136,-2.6146,-2.6115,-2.6174,-2.6275,-2.6289,-2.6156,-2.6154,-2.6153,0,-2.5189,-2.5318,-2.5353,-2.5463,-2.5529,-2.555,-2.5614,-2.5672,-2.5709,-2.5771,-2.5813,-2.5884,-2.5873,-2.5902,-2.5951,-2.5997,-2.6052,-2.599,-2.6083,-2.6086,-2.6065,-2.6159,-2.6163,-2.6248,-2.6132,-2.6135,-2.6136,0,-2.511,-2.5217,-2.5234,-2.5275,-2.5357,-2.5412,-2.5484,-2.5563,-2.5603,-2.5665,-2.5728,-2.5828,-2.5825,-2.5872,-2.5896,-2.5944,-2.6016,-2.5934,-2.5937,-2.5949,-2.6125,-2.6129,-2.6143,-2.6022,-2.6025,-2.6027,-2.612,0,-2.5043,-2.5113,-2.516,-2.5247,-2.5296,-2.5366,-2.5414,-2.546,-2.5478,-2.5515,-2.5608,-2.5668,-2.5748,-2.5775,-2.5793,-2.5887,-2.5879,-2.5874,-2.5852,-2.5912,-2.5945,-2.5958,-2.58,-2.58,-2.5799,-2.5799,0,0,-2.4927,-2.5027,-2.5062,-2.5133,-2.5177,-2.5196,-2.5268,-2.5313,-2.5403,-2.5434,-2.5421,-2.5571,-2.562,-2.5728,-2.575,-2.5782,-2.5804,-2.578,-2.5883,-2.5892,-2.5901,-2.5934,-2.5947,-2.5799,-2.5798,-2.5798,-2.5798,0,-2.4913,-2.4959,-2.5028,-2.5076,-2.5148,-2.5183,-2.52,-2.5275,-2.5302,-2.5391,-2.5407,-2.5468,-2.5585,-2.5636,-2.5677,-2.5768,-2.5777,-2.5789,-2.5823,-2.5878,-2.5887,-2.5896,-2.593,-2.5942,-2.5797,-2.5798,-2.5798,0,-2.4843,-2.4898,-2.4935,-2.5034,-2.5081,-2.5148,-2.5136,-2.5206,-2.5256,-2.5274,-2.5363,-2.5402,-2.5473,-2.5568,-2.5612,-2.5602,-2.575,-2.5711,-2.5714,-2.5721,-2.5776,-2.5787,-2.5798,-2.5664,-2.5663,-2.5663,0,0,-2.4824,-2.4888,-2.4959,-2.5034,-2.5063,-2.5115,-2.5155,-2.5177,-2.5238,-2.5263,-2.5314,-2.5374,-2.5443,-2.5488,-2.5555,-2.5652,-2.567,-2.5693,-2.5699,-2.5704,-2.5712,-2.5769,-2.5781,-2.566,-2.566,-2.566,0,0,-2.4815,-2.49,-2.4906,-2.4999,-2.5057,-2.5133,-2.5177,-2.5188,-2.5252,-2.5249,-2.529,-2.5308,-2.5397,-2.5435,-2.5396,-2.5548,-2.5524,-2.5534,-2.5519,-2.5528,-2.5534,-2.5523,-2.5392,0,0,0,0,0,-2.4823,-2.4889,-2.4894,-2.4917,-2.5041,-2.513,-2.5146,-2.518,-2.5163,-2.5198,-2.5242,-2.5248,-2.5423,-2.5389,-2.5412,-2.5455,-2.5628,-2.5634,-2.5639,-2.5643,-2.5651,-2.5658,0,0,0,0,0,0,-2.4832,-2.4859,-2.4893,-2.497,-2.4998,-2.5128,-2.5106,-2.5118,-2.516,-2.516,-2.5239,-2.5251,-2.5282,-2.538,-2.54,-2.544,-2.5385,-2.563,-2.5635,-2.564,-2.5646,-2.5653,-2.5659,0,0,0,0,0,-2.484,-2.4862,-2.5052,-2.4969,-2.4994,-2.5056,-2.5104,-2.5113,-2.5147,-2.5215,-2.5226,-2.5169,-2.5282,-2.5301,-2.5392,-2.543,-2.5372,-2.5379,-2.5633,-2.5637,-2.5641,-2.5649,0,0,0,0,0,0,-2.4845,-2.4871,-2.5057,-2.5066,-2.4946,-2.5049,-2.5066,-2.5109,-2.52,-2.5211,-2.5146,-2.5145,-2.5283,-2.5298,-2.5312,-2.5425,-2.5361,-2.5369,-2.5373,-2.5636,-2.5639,-2.5642,0,0,0,0,0,0,-2.486,-2.4879,-2.5062,-2.5031,-2.5037,-2.5043,-2.5058,-2.514,-2.52,-2.5126,-2.5128,-2.5144,-2.5262,-2.5296,-2.5307,-2.5433,-2.5353,-2.536,-2.5365,-2.5368,-2.5639,-2.5641,0,0,0,0,0,0,-2.4868,-2.4885,-2.5029,-2.5033,-2.5038,-2.514,-2.5116,-2.5242,-2.5172,-2.5122,-2.5167,-2.5165,-2.526,-2.5272,-2.5303,-2.5425,-2.5431,-2.5353,-2.5358,-2.5361,-2.5364,0,0,0,0,0,0,0,-2.4875,-2.4758,-2.5005,-2.5035,-2.5039,-2.5148,-2.5151,-2.5153,-2.5172,-2.517,-2.5168,-2.5166,-2.5313,-2.5321,-2.5328,-2.5418,0,0,-2.5352,-2.5356,0,0,0,0,0,0,0,0,-2.4752,-2.4756,-2.5005,-2.5007,-2.5009,-2.5148,-2.515,-2.5152,-2.5172,-2.517,-2.5168,-2.5167,-2.5315,-2.5321,-2.5328,0,0,0,0,0,0,0,0,0,0,0,0,0,0,0,-2.5005,-2.5007,0,-2.5149,-2.515,-2.5152,-2.5171,-2.517,-2.5169,-2.5167,-2.5317,-2.5322,-2.5327,0,0,0,0,0,0,0,0,0,0,0,0,0,0,0,0,0,0,0,0,0,0,0,0,0,0,0,0,0,0,0,0,0,0,0,0,0,0,0,0,0,0,0,0,0,0,0,0,0,0,0,0,0,0,0,0,0,0,0,0,0,0,0,0,0,0,0,0,0]}]]]